Regional Weather Roundup
Issued by NWS

Home | Current Version | Previous Version | Graphics & Text | Print | Product List | Glossary On
Versions: 1 2 3 4 5 6 7 8 9 10 11 12 13 14 15 16 17 18 19 20 21 22 23 24 25 26 27 28 29 30 31 32 33 34 35 36 37 38 39 40 41 42 43 44 45 46 47 48 49 50
000
ASUS43 KMKX 222121
RWRWI

WISCONSIN REGIONAL WEATHER ROUNDUP
NATIONAL WEATHER SERVICE MILWAUKEE/SULLIVAN WI
300 PM CST SAT NOV 22 2014

NOTE: "FAIR" INDICATES FEW OR NO CLOUDS BELOW 12,000 FEET WITH NO
SIGNIFICANT WEATHER AND/OR OBSTRUCTIONS TO VISIBILITY.

WIZ001-002-006>008-014>016-023>028-222200-
NORTHWEST WISCONSIN

CITY           SKY/WX    TMP DP  RH WIND       PRES   REMARKS
SUPERIOR ARPT  CLOUDY    38  32  78 S5        29.65F WCI  35
ASHLAND        CLOUDY    38  31  76 SW9       29.68S WCI  31
HAYWARD        CLOUDY    35  31  85 S10       29.68S WCI  27
SIREN          CLOUDY    35  32  90 S9        29.68S FOG     WCI  27
CUMBERLAND     CLOUDY    34  32  93 S7        29.68F FOG     WCI  28
RICE LAKE      CLOUDY    35  32  90 S6        29.70F WCI  30
CHETEK         CLOUDY    35  33  94 S5        29.70F FOG     WCI  30
LADYSMITH      CLOUDY    35  33  93 S7        29.72F FOG     WCI  29
EAU CLAIRE     CLOUDY    36  35  96 S6        29.71S FOG     WCI  31
MENOMONIE      CLOUDY    37  35  92 S7        29.70F FOG     WCI  31
NEW RICHMOND   CLOUDY    34  33  97 S8        29.69S FOG     WCI  27
OSCEOLA        CLOUDY    35  35 100 S9        29.71F FOG     WCI  27
$$

WIZ003>005-009-010-017-018-222200-
NORTH CENTRAL WISCONSIN

CITY           SKY/WX    TMP DP  RH WIND       PRES   REMARKS
MANITOWISH WTR CLOUDY    32  32  99 SW10G17   29.68S WCI  24
ARBOR VITAE    CLOUDY    37  34  90 SW8       29.69S FOG     WCI  30
WOODRUFF       CLOUDY    37  34  90 SW8       29.69S FOG     WCI  30
RHINELANDER    CLOUDY    33  31  92 SW9       29.70S FOG     WCI  25
EAGLE RIVER    CLOUDY    33  32  96 SW9       29.69S FOG     WCI  25
LAND O LAKES   CLOUDY    34  31  89 SW5       29.69R WCI  30
PHILLIPS       CLOUDY    33  32  98 SW5       29.69S FOG     WCI  28
TOMAHAWK       CLOUDY    33  31  92 CALM      29.71S FOG
MEDFORD        FOG       34  33  97 S7        29.71S VSB 1/2 WCI  28
MERRILL        CLOUDY    35  35  99 SW6       29.72S FOG     WCI  30
$$

WIZ029-030-035-036-043>047-222200-
CENTRAL WISCONSIN

CITY           SKY/WX    TMP DP  RH WIND       PRES   REMARKS
WAUSAU         FOG       34  34 100 S7        29.72F VSB<1/4 WCI  28
MOSINEE        FOG       34  34 100 S5        29.74F VSB 1/8 WCI  30
MARSHFIELD     FOG       36  35  96 S6        29.72F VSB<1/4 WCI  31
STEVENS POINT  CLOUDY    35  34  96 SW3       29.75S FOG
WAUPACA        CLOUDY    40  37  87 S6        29.76F FOG
WAUTOMA        CLOUDY    39  37  93 SW7       29.77F FOG     WCI  34
WISC RAPIDS    CLOUDY    37  34  89 S3        29.76S FOG
CAMP DOUGLAS   CLOUDY    41  41 100 S8        29.75F
$$

WIZ011>013-019>022-031-037>040-048>050-222200-
NORTHEAST WISCONSIN

CITY           SKY/WX    TMP DP  RH WIND       PRES   REMARKS
ANTIGO         FOG       33  33 100 SW8       29.72S VSB 1/4 WCI  26
SHAWANO        CLOUDY    38  35  87 SW3       29.76S FOG
OCONTO         CLOUDY    38  36  92 SW6       29.76S WCI  33
STURGEON BAY   CLOUDY    37  34  87 SW12      29.76F WCI  30
GREEN BAY      CLOUDY    38  36  92 SW6       29.76F FOG     WCI  33
MANITOWOC      CLOUDY    43  40  89 SW7       29.78S
APPLETON       FOG       37  37 100 SW6       29.76F VSB 1/2 WCI  33
CLINTONVILLE   CLOUDY    36  34  93 S3        29.76F FOG
OSHKOSH        CLOUDY    40  38  93 SW9       29.77S FOG     WCI  34
$$

WIZ032>034-041-042-053>061-222200-
SOUTHWEST WISCONSIN

CITY           SKY/WX    TMP DP  RH WIND       PRES   REMARKS
LA CROSSE      CLOUDY    41  37  86 S7        29.74F
SPARTA         CLOUDY    40  37  88 S6        29.74F
VIROQUA        CLOUDY    38  38 100 SW8       29.74F VSB<1/4 WCI  32
BOSCOBEL       CLOUDY    43  41  93 S3        29.78F FOG
PRAIRIE DU CHI CLOUDY    43  41  91 CALM      29.76F FOG
PLATTEVILLE    CLOUDY    46  45  97 CALM      29.79F
$$

WIZ056-057-062-063-064-067-068-222200-
SOUTH CENTRAL WISCONSIN

CITY           SKY/WX    TMP DP  RH WIND       PRES   REMARKS
REEDSBURG      CLOUDY    40  39  96 SW6       29.77S FOG
BARABOO/DELLS  CLOUDY    40  39  95 SW9       29.77S FOG     WCI  34
LONE ROCK      CLOUDY    46  40  79 CALM      29.79S HAZE
MINERAL POINT  CLOUDY    45  43  93 SW10      29.78S FOG
MADISON        CLOUDY    44  42  93 SW5       29.79F FOG
MIDDLETON      CLOUDY    44  44  97 SW3       29.80R
WATERTOWN      CLOUDY    42  42 100 S8        29.79S FOG
MONROE         CLOUDY    45  45 100 SW12      29.80S FOG
JANESVILLE     CLOUDY    48  46  93 SW10      29.81S FOG
$$

WIZ051-052-058>065-066-070>072-222200-
SOUTHEAST WISCONSIN

CITY           SKY/WX    TMP DP  RH WIND       PRES   REMARKS
MILWAUKEE      CLOUDY    45  42  89 SW14      29.81F FOG
WAUKESHA       CLOUDY    43  43 100 SW9       29.81F FOG
MILWAUKEE/TIMM CLOUDY    46  43  87 SW10G16   29.81S FOG
RACINE         CLOUDY    45  42  89 S9        29.84S FOG
BURLINGTON     CLOUDY    44  43  97 SW9       29.82S FOG
KENOSHA        CLOUDY    45  43  93 S10       29.83F FOG
FOND DU LAC    CLOUDY    40  38  93 S7        29.78S FOG
SHEBOYGAN      CLOUDY    42  40  92 SW12      29.79F FOG
WEST BEND      CLOUDY    43  41  93 SW9       29.79S FOG
JUNEAU         FOG       39  39 100 S8        29.80R VSB 1/4 WCI  34
$$

LSZ147-162-222200-
LAKE SUPERIOR

STATION/POSITION TIME  TEMP    WIND        PRES    WAVE
                       AIR SEA DIR/SP/G            HT/PER
                 (UTC) (F)     (DEG/KT/KT) (MB)    (FT/S)
DEVILS ISLAND    2100   38     240/  7/  9 1005.0F
PORT WING        2000   41     200/  7/ 10 1004.7S
SAXON HARBOR     2000   40     220/ 10/ 13 1005.1S
$$

LMZ867-665-643>646-222200-
LAKE MICHIGAN

STATION/POSITION TIME  TEMP    WIND        PRES    WAVE
                       AIR SEA DIR/SP/G            HT/PER
                 (UTC) (F)     (DEG/KT/KT) (MB)    (FT/S)
CHAMBERS ISLAND  2000   37     200/  8/ 13 1007.5F
N MID LAKE BUOY  2050   40 42  240/ 17/ 21 1007.8R   7/ 8
NORTHPORT PIER   2000   37     210/  6/ 15 1007.5F
KEWAUNEE LAKESHO 2100   41     220/  5/  8 1007.5S
SHEBOYGAN LAKESH 2100   41 36  180/ 12/ 13 1009.6F
PORT WASHINGTON  2040   41     210/  5/  7 1010.2F
ATWATER BUOY     2100   45      CALM  /  4 1010.7F
MILWAUKEE LAKESH 2100   44     210/ 10/ 11   N/A
S MID LAKE BUOY  2050   44 42  200/ 17/ 21 1011.4F   4/ 6
KENOSHA   LAKESH 2100   46     200/  9/ 14 1010.5F
$$

TC  - TEMPERATURE IN CELSIUS
VSB - VISIBILITY IN STATUTE MILES
WCI - WIND CHILL INDEX
HX  - HEAT INDEX




USA.gov is the U.S. government's official web portal to all federal, state and local government web resources and services.